Weather History for Hastings, NE

Change the Weather History Date:

Tuesday, October 25, 2011

  Actual Average Record
Temperature  
Mean Temperature 54 °F 49 °F  
Max Temperature 64 °F 60 °F 89 °F (1927)
Min Temperature 44 °F 37 °F 19 °F (1975)
Degree Days  
Heating Degree Days 11 16  
Month to date heating degree days 210 289  
Since 1 July heating degree days 368 385  
Cooling Degree Days 0 0  
Month to date cooling degree days 24 11  
Year to date cooling degree days 1119 1074  
Growing Degree Days 4 (Base 50)    
Moisture  
Dew Point 39 °F    
Average Humidity 58    
Maximum Humidity 76    
Minimum Humidity 40    
Precipitation  
Precipitation 0.00 in 0.06 in 1.45 in (1997)
Month to date precipitation 1.34 1.71  
Year to date precipitation 25.71 24.93  
Snow  
Snow 0.00 in 0.10 in - ()
Month to date snowfall 0.0 0.7  
Since 1 July snowfall 0.0 0.9  
Since 1 September snowfall 0.0 0.9  
Snow Depth 0.00 in    
Sea Level Pressure  
Sea Level Pressure 29.82 in    
Wind  
Wind Speed 15 mph (NNW)    
Max Wind Speed 31 mph    
Max Gust Speed 37 mph    
Visibility 10 miles    
Events      
T = Trace of Precipitation, MM = Missing Value Source: NWS Daily Summary

Daily Weather History Graph

Daily Weather History Graph

Search for Another Location

Airport:

Trip Planner

Search our weather history database for the weather conditions in past years. The results will help you decide how hot, cold, wet, or windy it might be!

Date:

Astronomy

Oct. 25, 2011 Rise Set
Actual Time 7:55 AM CDT 6:39 PM CDT
Civil Twilight 7:27 AM CDT 7:07 PM CDT
Nautical Twilight 6:55 AM CDT 7:39 PM CDT
Astronomical Twilight 6:23 AM CDT 8:10 PM CDT
Moon 6:29 AM CDT (10/25) 5:41 PM CDT (10/25)
Length of Visible Light 11h 39m
Length of Day
10h 43m
Waning Crescent, 2% of the Moon is Illuminated
Oct 25
Waning Crescent
Oct 26
New
Nov 2
First Quarter
Nov 10
Full
Nov 18
Last Quarter

Hourly Weather History & Observations

Time (CDT) Temp. Windchill Dew Point Humidity Pressure Visibility Wind Dir Wind Speed Gust Speed Precip Events Conditions
12:53 AM 64.0 °F - 39.9 °F 41% 29.71 in 10.0 mi South 6.9 mph - N/A   Clear
1:53 AM 62.6 °F - 41.0 °F 45% 29.71 in 10.0 mi South 9.2 mph - N/A   Clear
2:53 AM 60.1 °F - 41.0 °F 49% 29.68 in 10.0 mi South 4.6 mph - N/A   Clear
3:53 AM 59.0 °F - 39.9 °F 49% 29.64 in 10.0 mi South 8.1 mph - N/A   Clear
4:53 AM 57.0 °F - 39.9 °F 53% 29.63 in 10.0 mi South 6.9 mph - N/A   Clear
5:53 AM 55.9 °F - 39.9 °F 55% 29.62 in 10.0 mi South 8.1 mph - N/A   Clear
6:53 AM 51.1 °F - 39.0 °F 63% 29.64 in 10.0 mi Calm Calm - N/A   Clear
7:53 AM 45.0 °F - 37.0 °F 74% 29.68 in 10.0 mi Calm Calm - N/A   Clear
8:53 AM 50.0 °F - 39.9 °F 68% 29.71 in 10.0 mi NNW 13.8 mph - N/A   Clear
9:53 AM 50.0 °F - 39.9 °F 68% 29.75 in 10.0 mi NNW 21.9 mph 28.8 mph N/A   Clear
10:53 AM 54.0 °F - 39.0 °F 57% 29.76 in 10.0 mi NNW 24.2 mph 29.9 mph N/A   Clear
11:53 AM 55.9 °F - 39.0 °F 53% 29.81 in 10.0 mi NNW 26.5 mph 32.2 mph N/A   Clear
12:53 PM 57.0 °F - 39.0 °F 51% 29.84 in 10.0 mi NNW 27.6 mph 35.7 mph N/A   Clear
1:53 PM 57.9 °F - 39.9 °F 51% 29.84 in 10.0 mi NNW 26.5 mph 34.5 mph N/A   Clear
2:53 PM 60.1 °F - 39.9 °F 47% 29.84 in 10.0 mi NNW 24.2 mph 29.9 mph N/A   Clear
3:53 PM 60.1 °F - 41.0 °F 49% 29.87 in 10.0 mi NNW 25.3 mph 29.9 mph N/A   Clear
4:53 PM 59.0 °F - 39.9 °F 49% 29.91 in 10.0 mi NNW 20.7 mph 29.9 mph N/A   Clear
5:53 PM 55.9 °F - 39.9 °F 55% 29.93 in 10.0 mi North 17.3 mph 24.2 mph N/A   Clear
6:53 PM 54.0 °F - 39.9 °F 59% 29.95 in 10.0 mi North 11.5 mph - N/A   Clear
7:53 PM 51.8 °F - 37.4 °F 58% 29.97 in 10.0 mi North 13.8 mph - N/A   Clear
8:53 PM 48.9 °F - 37.9 °F 66% 30.03 in 10.0 mi NNW 9.2 mph - N/A   Clear
9:53 PM 46.0 °F 40.6 °F 37.0 °F 71% 30.08 in 10.0 mi NNW 11.5 mph - N/A   Clear
10:53 PM 46.0 °F 39.6 °F 37.0 °F 71% 30.09 in 10.0 mi North 15.0 mph - N/A   Clear
11:53 PM 46.0 °F 39.3 °F 37.0 °F 71% 30.08 in 10.0 mi North 16.1 mph 25.3 mph N/A   Clear